CZ-6A DEB, 54360

Orbit data source: Space-Track

CZ-6A DEB, 54360 is space debris in SSO originally from a launch on Fri, 11 Nov 2022 UTC launched from the Taiyaun Space Center, China (TSC). Debris objects in space refer to the collection of defunct objects orbiting the Earth. Examples of debris include non-operational satellites, rocket bodies, and fragments generated from explosions, collisions, or faulty payload assembly.

Loading next visibility...
Identifier
54360, 2022-151DF
Orbit
SSO
Country
Flag of CNCN / PRC
Related business
Manufacturer
SAST
Mission
Spacecraft
Bus & Motor
Unknown
Mass
Unknown
Launch date (UTC)
2022-11-11 (4 years ago)
Launch vehicle
Unknown
Launch site
Taiyaun Space Center, China (TSC)
Object type
Payload
Rocket body
Debris
Shape & HBR
Unknown shape, 0.1 m
Radar Cross Section
Medium (>0.1 m² and <1 m²)

Expand to show TLE details & history
Last TLE update: 2 days ago

TLE from 2 days ago
0 CZ-6A DEB
1 54360U 22151DF  26171.40906325  .00001049  00000-0  47619-3 0  9999
2 54360  98.6977 167.9944 0088193 162.9134 197.5046 14.21908360186125
Epoch: 2026-06-20T09:49Z
TLE epoch observation values (Epoch: 2026-06-20T09:49:03.064Z)
Latitude
-0.00004°
Longitude
112.10753°
Altitude
882.42 km
Speed
7.38 km/s
True Right ascension
11h 11m 58s
True Declination
0° 00' 00"
Sunlit
Object was in daylight at epoch
Visualization orbit readout
Latitude
Unknown
Longitude
Unknown
Altitude
Unknown
Speed
Unknown
Apparent Right ascension
Unknown
Apparent Declination
Unknown
Sunlit
N/A
Visualization observer readout
Local Sidereal Time
21:55:04
Azimuth
Unknown
Elevation
Unknown
Doppler factor
Unknown
Orbital elements
Apogee altitude
879.509 km
Perigee altitude
752.613 km
Semi-major axis
7,194.198 km
Eccentricity
0.00882
Inclination
98.6977°
RAAN
167.9944°
Arg. of periapsis
162.9134°
True anomaly
197.20379°
Mean anomaly
197.5046°
Eccentric anomaly
197.35388°
Mean motion
3.55688 °/min
Orbital period
101.21 mins
BSTAR
0.00047619
Loading maneuver chart data...
Computing Atmospheric mass density...
Loading historical data...
Loading historical data...
Loading historical data...
Loading historical data...
Loading historical data...
Loading historical data...
Loading historical data...

Documentation

Showing up to 5 results
|